Retour au catalogue

THOR ABLESTAR R/B

ActifLEO
NORAD 204·ROCKET BODY·🇺🇸 United States

Lancé Nov 15, 1961 depuis Cape Canaveral Space Force Station

Loading…

Prochains Passages (prochaines 24 heures)

TLE

FraisSource: Space-Track

Époque: Sep 9, 2026, 06:55 UTC

1   204U 61031C   26252.28862659  .00000061  00000-0  43912-4 0  9990
2   204  32.4441 355.5760 0098699 232.4102 126.7523 13.65086863234520

Suivez THOR ABLESTAR R/B en temps réel avec AllMySat

Download on the App Store